Weather in Porto Moniz

Portugal     32°51′56″N   17°10′02″W
temp.,
°C
wind,
m/s
gust,
m/s
humid.,
%
clouds,
%
prec.,
mm/h
press.,
hPa
HPBL,
m
28 february, sun
sun2800:00+12ne457742 0.6 1021333
03:00+12ne448030 0.0 1020258
06:00+12ne447941 0.0 1019241
09:00+14ne567966 0.1 1019471
12:00+15ne237356 0.1 1020623
15:00+16nne456914 0.0 1018560
18:00+15nne56727 0.0 1018426
21:00+13nne678315 0.0 1019388
1 march, mon
mon100:00+13nne568235 0.1 1020453
03:00+13nne568078 0.1 1018562
06:00+13ne557674 0.1 1019446
09:00+13ne347515 0.0 1020453
12:00+15n337012 0.0 1021633
15:00+14nne347776 0.0 1020484
18:00+14ne337782 0.0 1021488
21:00+14ene228174 0.1 1022496
2 march, tue
tue200:00+14ese127883 0.1 1023436
03:00+13sse127895 0.1 1023504
06:00+13nw117895 0.2 1022488
09:00+13n117595 0.0 1024548
12:00+15wsw127097 0.0 1025556
15:00+13se127996 0.0 1024452
18:00+13sse117996 0.0 1024378
21:00+13e117899 0.0 1025344
3 march, wed
wed300:00+13se227799 0.0 1024366
03:00+12sse227894 0.0 1024405
06:00+12sse227678 0.0 1023391
09:00+13se127192 0.0 1024575
12:00+14s236992 0.0 1025506
15:00+15wsw327184 0.0 1023531
18:00+14w347844 0.0 1023392
21:00+14w248359 0.0 1023445
4 march, thu
thu400:00+14wnw248668 0.0 1023440
03:00+15wnw349186 0.1 1022360
06:00+15nnw568783 0.2 1021530
09:00+15n578775 0.0 1023650
12:00+17n567364 0.1 1024506
15:00+17nnw677483 0.0 1023499
18:00+16nnw468467 0.0 1022476
21:00+16nnw678884 0.1 1024584